FW7858 Weather Reports


Display with metric or nautical units.
time (UTC)temp
F
wind
direction
speed
MPH
gust
MPH
rain 1hr
in
rain 24hr
in
rain mn
in
humidity
%
barometer
mb
20260508132548 48 360 3.0 5.0 0.00 0.00 0.00 59 1005.9
20260508132047 47 360 3.0 5.0 0.00 0.00 0.00 62 1006.0
20260508131548 46 360 3.0 4.0 0.00 0.00 0.00 63 1006.1
20260508131044 44 360 1.0 3.0 0.00 0.00 0.00 70 1006.0
20260508130542 43 360 0.0 2.0 0.00 0.00 0.00 73 1006.1
20260508130041 42 360 0.0 2.0 0.00 0.00 0.00 80 1006.1
20260508125542 42 360 0.0 0.0 0.00 0.00 0.00 82 1006.2
20260508125038 41 360 0.0 0.0 0.00 0.00 0.00 83 1006.2
20260508124538 41 360 0.0 0.0 0.00 0.00 0.00 84 1006.2
20260508124037 40 360 0.0 0.0 0.00 0.00 0.00 85 1006.3
20260508123536 39 360 0.0 2.0 0.00 0.00 0.00 86 1006.3
20260508123036 39 360 1.0 2.0 0.00 0.00 0.00 87 1006.3
20260508122536 38 360 1.0 3.0 0.00 0.00 0.00 88 1006.3
20260508122035 37 360 1.0 3.0 0.00 0.00 0.00 88 1006.4
20260508121536 37 360 0.0 1.0 0.00 0.00 0.00 86 1006.3
20260508121035 37 360 0.0 1.0 0.00 0.00 0.00 86 1006.1
20260508120534 38 360 0.0 0.0 0.00 0.00 0.00 87 1006.1
20260508120037 38 360 0.0 2.0 0.00 0.00 0.00 87 1006.0
20260508115537 38 360 0.0 2.0 0.00 0.00 0.00 87 1006.1
20260508115034 38 360 0.0 1.0 0.00 0.00 0.00 87 1006.1
20260508114536 38 360 0.0 2.0 0.00 0.00 0.00 88 1006.1
20260508114035 37 360 1.0 2.0 0.00 0.00 0.00 88 1006.0
20260508113535 37 360 1.0 2.0 0.00 0.00 0.00 88 1006.0
20260508113048 37 360 0.0 2.0 0.00 0.00 0.00 88 1006.1
20260508112533 36 360 0.0 1.0 0.00 0.00 0.00 88 1006.0
20260508112033 36 360 0.0 0.0 0.00 0.00 0.00 88 1006.1
20260508111533 36 360 0.0 0.0 0.00 0.00 0.00 88 1006.1
20260508111034 36 360 0.0 0.0 0.00 0.00 0.00 87 1006.1
20260508110533 36 360 0.0 0.0 0.00 0.00 0.00 86 1006.1
20260508110034 36 360 0.0 0.0 0.00 0.00 0.00 86 1006.2
20260508105533 36 360 0.0 0.0 0.00 0.00 0.00 86 1006.1
20260508105032 37 360 0.0 0.0 0.00 0.00 0.00 87 1006.1
20260508104540 37 360 0.0 2.0 0.00 0.00 0.00 89 1006.1
20260508104031 37 360 0.0 3.0 0.00 0.00 0.00 89 1006.1
20260508103531 36 360 1.0 3.0 0.00 0.00 0.00 89 1006.2
20260508103031 36 360 1.0 2.0 0.00 0.00 0.00 90 1006.2
20260508102530 36 360 0.0 0.0 0.00 0.00 0.00 88 1006.2
20260508102030 36 360 0.0 0.0 0.00 0.00 0.00 89 1006.3
20260508101536 36 360 0.0 0.0 0.00 0.00 0.00 88 1006.2
20260508101031 36 360 0.0 0.0 0.00 0.00 0.00 89 1006.3
20260508100528 36 360 0.0 0.0 0.00 0.00 0.00 90 1006.4
20260508100035 35 360 0.0 0.0 0.00 0.00 0.00 91 1006.4
20260508095528 35 360 0.0 0.0 0.00 0.00 0.00 91 1006.4
20260508095028 35 360 0.0 0.0 0.00 0.00 0.00 90 1006.5
20260508094527 34 360 0.0 0.0 0.00 0.00 0.00 90 1006.5
20260508094027 34 360 0.0 0.0 0.00 0.00 0.00 90 1006.5
20260508093527 34 360 0.0 0.0 0.00 0.00 0.00 88 1006.4
20260508093027 34 360 0.0 0.0 0.00 0.00 0.00 88 1006.4
20260508092527 35 360 0.0 0.0 0.00 0.00 0.00 88 1006.4
20260508092025 35 360 0.0 0.0 0.00 0.00 0.00 89 1006.5
20260508091527 36 360 0.0 0.0 0.00 0.00 0.00 90 1006.5
20260508091026 36 360 0.0 2.0 0.00 0.00 0.00 91 1006.5
20260508090524 35 360 0.0 2.0 0.00 0.00 0.00 91 1006.6
20260508090028 35 360 0.0 1.0 0.00 0.00 0.00 90 1006.7
20260508085523 34 360 0.0 1.0 0.00 0.00 0.00 88 1006.7
20260508085023 35 360 0.0 0.0 0.00 0.00 0.00 87 1006.7
20260508084522 35 360 0.0 2.0 0.00 0.00 0.00 88 1006.7
20260508084022 36 360 0.0 2.0 0.00 0.00 0.00 90 1006.7
20260508083521 36 360 0.0 2.0 0.00 0.00 0.00 90 1006.7
20260508083020 35 360 0.0 1.0 0.00 0.00 0.00 89 1006.7
20260508082524 35 360 0.0 0.0 0.00 0.00 0.00 89 1006.8
20260508082021 35 360 0.0 1.0 0.00 0.00 0.00 89 1006.9
20260508081519 35 360 0.0 1.0 0.00 0.00 0.00 89 1006.9
20260508081020 34 360 0.0 0.0 0.00 0.00 0.00 87 1007.0
20260508080517 34 360 0.0 0.0 0.00 0.00 0.00 87 1007.0
20260508080016 34 360 0.0 0.0 0.00 0.00 0.00 86 1007.0
20260508075516 34 360 0.0 0.0 0.00 0.00 0.00 86 1006.9
20260508075016 35 360 0.0 0.0 0.00 0.00 0.00 86 1007.0
20260508074518 35 360 0.0 0.0 0.00 0.00 0.00 88 1007.1
20260508074013 34 360 0.0 1.0 0.00 0.00 0.00 88 1007.0
20260508073514 34 360 0.0 1.0 0.00 0.00 0.00 86 1007.1
20260508073011 34 360 0.0 0.0 0.00 0.00 0.00 83 1007.1
20260508072511 34 360 0.0 0.0 0.00 0.00 0.00 83 1007.0
20260508072009 34 360 0.0 0.0 0.00 0.00 0.00 82 1007.1
20260508071508 35 360 0.0 1.0 0.00 0.00 0.00 80 1007.1
20260508071006 36 360 0.0 1.0 0.00 0.00 0.00 80 1007.2
20260508070505 37 360 0.0 1.0 0.00 0.00 0.00 82 1007.2
20260508070005 37 360 0.0 2.0 0.00 0.00 0.00 85 1007.2
20260508065503 37 360 1.0 2.0 0.00 0.00 0.00 84 1007.3
20260508065002 37 360 1.0 2.0 0.00 0.00 0.00 83 1007.3
20260508064502 37 360 1.0 2.0 0.00 0.00 0.00 82 1007.3
20260508064100 37 360 0.0 0.0 0.00 0.00 0.00 80 1007.2
20260508063559 37 360 0.0 0.0 0.00 0.00 0.00 81 1007.3
20260508063059 37 360 0.0 1.0 0.00 0.00 0.00 81 1007.3
20260508062558 37 360 0.0 2.0 0.00 0.00 0.00 81 1007.2
20260508062057 37 360 0.0 2.0 0.00 0.00 0.00 81 1007.3
20260508061601 37 360 1.0 2.0 0.00 0.00 0.00 80 1007.3
20260508061056 37 360 0.0 0.0 0.00 0.00 0.00 77 1007.4
20260508060553 38 360 0.0 1.0 0.00 0.00 0.00 79 1007.3
20260508060053 38 360 0.0 2.0 0.00 0.00 0.00 79 1007.4
20260508055553 39 360 0.0 2.0 0.00 0.00 0.00 80 1007.3
20260508055051 39 360 1.0 2.0 0.00 0.00 0.00 80 1007.5
20260508054615 39 360 1.0 2.0 0.00 0.00 0.00 80 1007.4
20260508054053 39 360 1.0 2.0 0.00 0.00 0.00 80 1007.6
20260508053547 39 360 0.0 1.0 0.00 0.00 0.00 78 1007.6
20260508053047 39 360 0.0 2.0 0.00 0.00 0.00 77 1007.5
20260508052550 39 360 1.0 2.0 0.00 0.00 0.00 76 1007.5
20260508052046 39 360 1.0 2.0 0.00 0.00 0.00 76 1007.5
20260508051545 38 360 0.0 1.0 0.00 0.00 0.00 72 1007.5
20260508051042 39 360 0.0 1.0 0.00 0.00 0.00 70 1007.7
20260508050540 40 360 0.0 1.0 0.00 0.00 0.00 70 1007.7
20260508050040 41 360 0.0 2.0 0.00 0.00 0.00 72 1007.6
20260508045538 41 360 1.0 2.0 0.00 0.00 0.00 74 1007.6
20260508045038 41 360 1.0 2.0 0.00 0.00 0.00 71 1007.6
20260508044538 42 360 1.0 2.0 0.00 0.00 0.00 70 1007.7
20260508044037 42 360 0.0 1.0 0.00 0.00 0.00 70 1007.7
20260508043539 42 360 0.0 0.0 0.00 0.00 0.00 68 1007.7
20260508043047 42 360 0.0 0.0 0.00 0.00 0.00 61 1007.7
20260508042540 43 360 0.0 0.0 0.00 0.00 0.00 61 1007.8
20260508042040 44 360 0.0 0.0 0.00 0.00 0.00 63 1007.7
20260508041538 44 360 0.0 1.0 0.00 0.00 0.00 61 1007.7
20260508041040 44 360 0.0 1.0 0.00 0.00 0.00 61 1007.9
20260508040537 45 360 0.0 1.0 0.00 0.00 0.00 62 1007.9
20260508040043 45 360 0.0 2.0 0.00 0.00 0.00 60 1007.8
20260508035541 45 360 1.0 2.0 0.00 0.00 0.00 61 1008.0
20260508035036 45 360 1.0 2.0 0.00 0.00 0.00 61 1007.9
20260508034536 44 360 1.0 2.0 0.00 0.00 0.00 61 1007.9
20260508034036 44 360 0.0 2.0 0.00 0.00 0.00 62 1007.9
20260508033536 44 360 0.0 0.0 0.00 0.00 0.00 62 1008.0
20260508033036 45 360 0.0 0.0 0.00 0.00 0.00 61 1007.9
20260508032536 45 360 0.0 2.0 0.00 0.00 0.00 61 1008.0
20260508032036 46 360 0.0 2.0 0.00 0.00 0.00 60 1007.9
20260508031544 46 360 0.0 1.0 0.00 0.00 0.00 56 1007.9
20260508031035 47 360 0.0 2.0 0.00 0.00 0.00 55 1007.9
20260508030535 48 360 0.0 3.0 0.00 0.00 0.00 53 1008.0
20260508030035 48 360 1.0 3.0 0.00 0.00 0.00 51 1008.0
20260508025535 48 360 0.0 3.0 0.00 0.00 0.00 49 1007.9
20260508025037 48 360 1.0 4.0 0.00 0.00 0.00 47 1007.8
20260508024534 49 360 0.0 4.0 0.00 0.00 0.00 47 1007.8
20260508024034 49 360 0.0 0.0 0.00 0.00 0.00 43 1007.7
20260508023534 49 360 0.0 1.0 0.00 0.00 0.00 44 1007.6
20260508023034 49 360 0.0 2.0 0.00 0.00 0.00 42 1007.6
20260508022534 50 360 0.0 2.0 0.00 0.00 0.00 44 1007.6
20260508022035 50 360 0.0 2.0 0.00 0.00 0.00 42 1007.5
20260508021534 50 360 0.0 2.0 0.00 0.00 0.00 42 1007.5
20260508021035 50 360 1.0 2.0 0.00 0.00 0.00 42 1007.4
20260508020532 50 360 0.0 3.0 0.00 0.00 0.00 41 1007.4
20260508020033 50 360 1.0 3.0 0.00 0.00 0.00 41 1007.3
20260508015532 51 360 1.0 3.0 0.00 0.00 0.00 41 1007.4
20260508015032 51 360 1.0 3.0 0.00 0.00 0.00 40 1007.4
20260508014533 52 360 1.0 3.0 0.00 0.00 0.00 40 1007.3
20260508014032 52 360 1.0 3.0 0.00 0.00 0.00 39 1007.3
20260508013532 53 360 1.0 6.0 0.00 0.00 0.00 38 1007.3
20260508013032 54 360 2.0 6.0 0.00 0.00 0.00 37 1007.3
20260508012534 54 360 2.0 4.0 0.00 0.00 0.00 37 1007.3
20260508012032 55 360 2.0 4.0 0.00 0.00 0.00 36 1007.2
20260508011540 55 360 2.0 5.0 0.00 0.00 0.00 36 1007.2
20260508011033 56 360 2.0 6.0 0.00 0.00 0.00 35 1007.2
20260508010531 56 360 2.0 8.0 0.00 0.00 0.00 34 1007.2
20260508010038 57 304 4.0 8.0 0.00 0.00 0.00 33 1007.2
20260508005530 57 294 1.0 4.0 0.00 0.00 0.00 34 1007.2
20260508005034 57 309 1.0 5.0 0.00 0.00 0.00 32 1007.1
20260508004538 58 302 0.0 8.0 0.00 0.00 0.00 33 1007.1
20260508004030 58 301 2.0 9.0 0.00 0.00 0.00 33 1007.2
20260508003530 58 298 4.0 9.0 0.00 0.00 0.00 32 1007.1
20260508003034 58 313 2.0 6.0 0.00 0.00 0.00 32 1007.1
20260508002530 58 333 2.0 13.0 0.00 0.00 0.00 31 1007.1
20260508002029 58 40 5.0 13.0 0.00 0.00 0.00 33 1007.2
20260508001533 58 304 6.0 14.0 0.00 0.00 0.00 32 1007.1
20260508001029 59 296 9.0 14.0 0.00 0.00 0.00 31 1007.1
20260508000531 59 328 8.0 12.0 0.00 0.00 0.00 30 1007.2
20260508000028 59 291 5.0 11.0 0.00 0.00 0.00 30 1007.2
20260507235527 59 319 1.0 10.0 0.00 0.00 0.00 32 1007.3
20260507235026 59 315 3.0 10.0 0.00 0.00 0.00 32 1007.4
20260507234532 58 305 3.0 12.0 0.00 0.00 0.00 31 1007.5
20260507234025 58 301 3.0 12.0 0.00 0.00 0.00 30 1007.6
20260507233525 59 328 2.0 13.0 0.00 0.00 0.00 31 1007.6
20260507233032 59 339 5.0 13.0 0.00 0.00 0.00 30 1007.7
20260507232524 59 314 5.0 17.0 0.00 0.00 0.00 30 1007.6
20260507232024 58 76 6.0 17.0 0.00 0.00 0.00 30 1007.6
20260507231524 59 295 10.0 15.0 0.00 0.00 0.00 29 1007.5
20260507231023 59 292 5.0 17.0 0.00 0.00 0.00 31 1007.6
20260507230526 59 302 11.0 17.0 0.00 0.00 0.00 29 1007.7
20260507230022 59 319 7.0 16.0 0.00 0.00 0.00 32 1007.6
20260507225522 58 26 4.0 13.0 0.00 0.00 0.00 31 1007.7
20260507225022 58 302 4.0 13.0 0.00 0.00 0.00 29 1007.6
20260507224524 59 296 8.0 18.0 0.00 0.00 0.00 29 1007.6
20260507224025 59 307 12.0 18.0 0.00 0.00 0.00 29 1007.7
20260507223525 59 336 3.0 9.0 0.00 0.00 0.00 30 1007.7
20260507223021 58 304 3.0 10.0 0.00 0.00 0.00 30 1007.8
20260507222523 59 82 3.0 10.0 0.00 0.00 0.00 29 1007.7
20260507222019 59 51 2.0 12.0 0.00 0.00 0.00 31 1007.8
20260507221521 59 351 5.0 12.0 0.00 0.00 0.00 29 1007.8
20260507221020 59 46 3.0 15.0 0.00 0.00 0.00 32 1007.9
20260507220520 58 339 4.0 16.0 0.00 0.00 0.00 31 1007.9
20260507220017 59 296 11.0 17.0 0.00 0.00 0.00 29 1008.0
20260507215519 59 294 10.0 17.0 0.00 0.00 0.00 29 1008.0
20260507215016 60 317 3.0 10.0 0.00 0.00 0.00 29 1008.2
20260507214523 60 355 4.0 10.0 0.00 0.00 0.00 28 1008.2
20260507214013 59 9 2.0 8.0 0.00 0.00 0.00 33 1008.2
20260507213515 59 29 2.0 8.0 0.00 0.00 0.00 29 1008.3
20260507213011 59 36 3.0 17.0 0.00 0.00 0.00 32 1008.4
20260507212511 59 342 8.0 17.0 0.00 0.00 0.00 31 1008.3
20260507212013 58 38 8.0 17.0 0.00 0.00 0.00 32 1008.5
20260507211507 59 327 7.0 19.0 0.00 0.00 0.00 31 1008.5
20260507211009 59 296 3.0 14.0 0.00 0.00 0.00 31 1008.5
20260507210504 59 277 9.0 14.0 0.00 0.00 0.00 32 1008.5
20260507210006 59 22 3.0 16.0 0.00 0.00 0.00 32 1008.7
20260507205504 59 16 3.0 16.0 0.00 0.00 0.00 30 1008.8
20260507205001 59 32 8.0 15.0 0.00 0.00 0.00 34 1008.6
20260507204600 59 299 3.0 14.0 0.00 0.00 0.00 34 1008.8
20260507204100 59 64 3.0 18.0 0.00 0.00 0.00 33 1008.8
20260507203601 59 326 7.0 19.0 0.00 0.00 0.00 31 1008.9
20260507203056 58 65 7.0 19.0 0.00 0.00 0.00 33 1009.0
20260507202559 58 282 5.0 13.0 0.00 0.00 0.00 33 1009.0
20260507202055 57 360 4.0 16.0 0.00 0.00 0.00 32 1009.1
20260507201556 58 297 6.0 16.0 0.00 0.00 0.00 31 1009.2
20260507201053 57 257 7.0 15.0 0.00 0.00 0.00 34 1009.2
20260507200552 56 337 3.0 9.0 0.00 0.00 0.00 36 1009.3
20260507200051 56 348 2.0 9.0 0.00 0.00 0.00 34 1009.5
20260507195549 56 355 3.0 13.0 0.00 0.00 0.00 35 1009.6
20260507195049 55 329 3.0 13.0 0.00 0.00 0.00 37 1009.4
20260507194549 55 311 3.0 16.0 0.00 0.00 0.00 37 1009.6
20260507194048 55 302 9.0 16.0 0.00 0.00 0.00 35 1009.6
20260507193547 55 298 6.0 16.0 0.00 0.00 0.00 37 1009.5
20260507193055 55 339 3.0 8.0 0.00 0.00 0.00 36 1009.7
20260507192546 55 69 2.0 11.0 0.00 0.00 0.00 38 1009.6
20260507192045 55 271 6.0 19.0 0.00 0.00 0.00 35 1009.7
20260507191547 55 295 11.0 19.0 0.00 0.00 0.00 36 1009.8
20260507191044 56 317 5.0 15.0 0.00 0.00 0.00 36 1009.8
20260507190542 55 298 10.0 18.0 0.00 0.00 0.00 35 1009.8
20260507190042 56 304 6.0 20.0 0.00 0.00 0.00 35 1009.8
20260507185540 55 311 10.0 20.0 0.00 0.00 0.00 38 1009.9
20260507185039 55 302 12.0 20.0 0.00 0.00 0.00 36 1010.1
20260507184538 55 317 12.0 21.0 0.00 0.00 0.00 36 1010.0
20260507184040 55 301 14.0 21.0 0.00 0.00 0.00 36 1010.1
20260507183538 55 296 13.0 21.0 0.00 0.00 0.00 36 1010.1
20260507183036 55 334 9.0 21.0 0.00 0.00 0.00 38 1010.2
20260507182535 55 296 11.0 16.0 0.00 0.00 0.00 37 1010.2
20260507182033 55 330 2.0 22.0 0.00 0.00 0.00 38 1010.4
20260507181533 54 298 10.0 21.0 0.00 0.00 0.00 39 1010.3
20260507181032 54 289 4.0 14.0 0.00 0.00 0.00 38 1010.3
20260507180531 54 282 6.0 18.0 0.00 0.00 0.00 38 1010.3
20260507180029 53 279 14.0 21.0 0.00 0.00 0.00 39 1010.5
20260507175527 52 309 6.0 21.0 0.00 0.00 0.00 43 1010.6
20260507175027 52 299 6.0 15.0 0.00 0.00 0.00 40 1010.7
20260507174543 53 288 10.0 15.0 0.00 0.00 0.00 41 1010.7
20260507174024 52 282 10.0 14.0 0.00 0.00 0.00 41 1010.8
20260507173527 53 317 4.0 17.0 0.00 0.00 0.00 42 1011.0
20260507173026 53 22 7.0 13.0 0.00 0.00 0.00 42 1010.9
20260507172521 53 300 5.0 13.0 0.00 0.00 0.00 43 1011.0
20260507172024 53 334 5.0 14.0 0.00 0.00 0.00 42 1011.2
20260507171522 52 323 9.0 17.0 0.00 0.00 0.00 40 1011.2
20260507171020 53 288 10.0 17.0 0.00 0.00 0.00 41 1011.2
20260507170518 52 287 2.0 19.0 0.00 0.00 0.00 41 1011.2
20260507170018 52 306 12.0 19.0 0.00 0.00 0.00 40 1011.4
20260507165521 51 303 11.0 17.0 0.00 0.00 0.00 41 1011.2
20260507165015 52 317 4.0 14.0 0.00 0.00 0.00 42 1011.4
20260507164513 51 22 7.0 16.0 0.00 0.00 0.00 45 1011.4
20260507164014 51 49 2.0 16.0 0.00 0.00 0.00 44 1011.5
20260507163514 51 297 2.0 15.0 0.00 0.00 0.00 43 1011.5
20260507163011 51 302 6.0 15.0 0.00 0.00 0.00 44 1011.5
20260507162511 50 360 4.0 15.0 0.00 0.00 0.00 44 1011.7
20260507162008 50 307 7.0 15.0 0.00 0.00 0.00 43 1011.7
20260507161506 51 58 1.0 16.0 0.00 0.00 0.00 44 1011.8
20260507161010 50 360 4.0 16.0 0.00 0.00 0.00 45 1011.8
20260507160504 50 360 9.0 15.0 0.00 0.00 0.00 46 1011.8
20260507160007 49 360 10.0 15.0 0.00 0.00 0.00 45 1011.7
20260507155504 49 360 8.0 16.0 0.00 0.00 0.00 47 1011.8
20260507155104 49 360 10.0 16.0 0.00 0.00 0.00 47 1011.9
20260507154559 49 360 7.0 14.0 0.00 0.00 0.00 49 1012.0
20260507154059 48 360 9.0 15.0 0.00 0.00 0.00 50 1012.0
20260507153601 48 360 9.0 15.0 0.00 0.00 0.00 47 1012.0
20260507153055 48 360 11.0 15.0 0.00 0.00 0.00 51 1011.9
20260507152600 48 360 9.0 15.0 0.00 0.00 0.00 53 1011.9
20260507152055 47 360 10.0 15.0 0.00 0.00 0.00 53 1012.0
20260507151557 47 360 11.0 15.0 0.00 0.00 0.00 55 1012.1
20260507151049 47 360 10.0 16.0 0.00 0.00 0.00 55 1012.0
20260507150547 46 360 12.0 16.0 0.00 0.00 0.00 54 1012.0
20260507150046 46 360 12.0 16.0 0.00 0.00 0.00 56 1012.2
20260507145547 46 360 12.0 16.0 0.00 0.00 0.00 58 1012.2
20260507145047 45 360 10.0 16.0 0.00 0.00 0.00 59 1012.1
20260507144543 45 360 9.0 16.0 0.00 0.00 0.00 59 1012.2
20260507144041 44 360 10.0 16.0 0.00 0.00 0.00 61 1012.2
20260507143539 44 360 12.0 15.0 0.00 0.00 0.00 60 1012.2
20260507143038 44 360 10.0 13.0 0.00 0.00 0.00 61 1012.1
20260507142537 43 360 9.0 14.0 0.00 0.00 0.00 62 1012.2
20260507142035 43 360 10.0 15.0 0.00 0.00 0.00 62 1012.3
20260507141534 43 360 12.0 15.0 0.00 0.00 0.00 62 1012.2
20260507141033 43 360 10.0 14.0 0.00 0.00 0.00 63 1012.1
20260507140531 42 360 10.0 13.0 0.00 0.00 0.00 63 1012.2
20260507140038 42 360 11.0 13.0 0.00 0.00 0.00 64 1012.2
20260507135528 42 360 9.0 12.0 0.00 0.00 0.00 67 1012.1
20260507135030 41 360 7.0 12.0 0.00 0.00 0.00 67 1012.2
20260507134526 41 360 7.0 11.0 0.00 0.00 0.00 67 1012.3
20260507134024 40 360 8.0 12.0 0.00 0.00 0.00 68 1012.2
20260507133522 39 360 6.0 10.0 0.00 0.00 0.00 70 1012.3
20260507133021 38 360 7.0 10.0 0.00 0.00 0.00 70 1012.3